Terminal Aerodrome Forecast
Issued by NWS Springfield, MO

Home | Current Version | Previous Version | Text Only | Print | Product List | Glossary On
Versions: 1 2 3 4 5 6 7 8 9 10 11 12 13 14 15 16 17 18 19 20 21 22 23 24 25 26 27 28 29 30 31
000
FTUS43 KSGF 030500 RRA
TAFSGF
TAF
KSGF 030538Z 0306/0406 15016KT P6SM OVC012 WS020/21040KT
     FM031000 16014KT 5SM BR OVC008 WS020/21040KT
      TEMPO 0310/0314 2SM -RADZ BR OVC005
     FM031400 19013G18KT 6SM BR OVC008
     FM031800 23012G17KT P6SM OVC015
     FM040000 30009KT P6SM OVC010
      TEMPO 0400/0403 5SM -RADZ OVC008
     FM040300 36005KT P6SM OVC008=

USA.gov is the U.S. government's official web portal to all federal, state and local government web resources and services.